TimeCST,TemperatureF,Dew PointF,Humidity,Sea Level PressureIn,VisibilityMPH,Wind Direction,Wind SpeedMPH,Gust SpeedMPH,PrecipitationIn,Events,Conditions,WindDirDegrees,DateUTC
12:54 AM,57.0,55.9,96,30.04,9.0,SE,5.8,-,N/A,,Overcast,130,2013-11-16 06:54:00
1:54 AM,57.9,57.0,97,30.03,10.0,SE,5.8,-,N/A,,Overcast,130,2013-11-16 07:54:00
2:54 AM,57.9,57.0,97,30.02,9.0,SSE,8.1,-,N/A,,Overcast,150,2013-11-16 08:54:00
3:54 AM,59.0,57.0,93,30.03,9.0,SSE,4.6,-,N/A,,Overcast,150,2013-11-16 09:54:00
4:54 AM,59.0,57.0,93,30.03,8.0,SE,4.6,-,N/A,,Overcast,140,2013-11-16 10:54:00
5:54 AM,59.0,57.9,96,30.04,6.0,SE,4.6,-,N/A,,Overcast,140,2013-11-16 11:54:00
6:54 AM,60.1,57.9,93,30.05,5.0,SSE,3.5,-,N/A,,Overcast,150,2013-11-16 12:54:00
7:30 AM,60.8,59.0,94,30.06,5.0,South,6.9,-,N/A,,Overcast,170,2013-11-16 13:30:00
7:54 AM,62.1,59.0,90,30.06,6.0,SE,8.1,-,N/A,,Overcast,140,2013-11-16 13:54:00
8:54 AM,64.9,61.0,87,30.06,7.0,SSE,8.1,-,N/A,,Overcast,150,2013-11-16 14:54:00
9:22 AM,66.2,62.6,88,30.07,7.0,SSE,9.2,-,N/A,,Overcast,150,2013-11-16 15:22:00
9:45 AM,66.2,62.6,88,30.06,7.0,SSE,8.1,-,N/A,,Overcast,160,2013-11-16 15:45:00
9:54 AM,66.9,62.1,84,30.06,7.0,SSE,9.2,-,N/A,,Overcast,160,2013-11-16 15:54:00
10:16 AM,68.0,62.6,83,30.06,10.0,SSE,8.1,-,N/A,,Overcast,160,2013-11-16 16:16:00
10:54 AM,70.0,63.0,78,30.05,10.0,SSE,8.1,-,N/A,,Overcast,150,2013-11-16 16:54:00
11:54 AM,73.9,64.0,71,30.01,10.0,South,10.4,-,N/A,,Mostly Cloudy,170,2013-11-16 17:54:00
12:03 PM,73.4,64.4,73,30.01,10.0,SSE,10.4,-,N/A,,Mostly Cloudy,150,2013-11-16 18:03:00
12:54 PM,73.0,64.0,73,29.99,10.0,SSE,10.4,-,N/A,,Overcast,160,2013-11-16 18:54:00
1:54 PM,75.0,64.0,69,29.96,10.0,South,11.5,-,N/A,,Mostly Cloudy,170,2013-11-16 19:54:00
2:54 PM,73.0,64.9,76,29.95,10.0,SSE,11.5,-,N/A,,Overcast,160,2013-11-16 20:54:00
3:54 PM,73.0,64.9,76,29.95,10.0,SE,13.8,-,N/A,,Mostly Cloudy,140,2013-11-16 21:54:00
4:54 PM,70.0,64.9,84,29.94,10.0,SE,12.7,-,N/A,,Mostly Cloudy,140,2013-11-16 22:54:00
5:24 PM,69.8,64.4,83,29.95,10.0,SE,12.7,-,N/A,,Mostly Cloudy,140,2013-11-16 23:24:00
5:45 PM,69.8,64.4,83,29.96,10.0,SE,8.1,-,N/A,,Mostly Cloudy,130,2013-11-16 23:45:00
5:54 PM,69.1,64.9,87,29.95,10.0,SE,11.5,-,N/A,,Mostly Cloudy,130,2013-11-16 23:54:00
6:33 PM,69.8,64.4,83,29.95,10.0,SE,15.0,-,N/A,,Overcast,140,2013-11-17 00:33:00
6:54 PM,69.1,64.9,87,29.95,10.0,SE,13.8,-,N/A,,Overcast,140,2013-11-17 00:54:00
7:15 PM,69.8,64.4,83,29.96,10.0,SSE,15.0,-,N/A,,Overcast,150,2013-11-17 01:15:00
7:54 PM,69.1,66.0,90,29.96,10.0,SSE,15.0,-,N/A,,Overcast,150,2013-11-17 01:54:00
8:54 PM,70.0,66.0,87,29.96,10.0,SSE,13.8,19.6,N/A,,Overcast,160,2013-11-17 02:54:00
9:54 PM,70.0,66.0,87,29.97,10.0,SSE,15.0,20.7,N/A,,Overcast,160,2013-11-17 03:54:00
10:54 PM,70.0,66.0,87,29.97,10.0,SSE,15.0,-,0.00,,Overcast,160,2013-11-17 04:54:00
11:30 PM,69.8,66.2,88,29.96,10.0,SSE,12.7,-,N/A,,Overcast,160,2013-11-17 05:30:00
11:54 PM,69.1,66.0,90,29.94,10.0,SSE,12.7,-,N/A,,Overcast,150,2013-11-17 05:54:00